Torna al catalogo

ARVAKER-1

AttivoScienzaSSO
NORAD 63252·PAYLOAD·🇳🇴 Norway

Lanciato Mar 15, 2025 da Vandenberg Space Force Base

Loading…

Prossimi Passaggi (prossime 24 ore)

TLE

AggiornatoSource: Space-Track

Epoca: Sep 14, 2026, 15:40 UTC

1 63252U 25052AU  26257.65331626  .00001778  00000-0  16837-3 0  9997
2 63252  97.6734 146.9698 0001027 311.6226  48.4906 14.94850356 81971

Traccia ARVAKER-1 in tempo reale con AllMySat

Download on the App Store